Location: Pian di Sc�
(43.6333°N, 11.5500°E)
Time: 18:16:07
(UTC+00:00)

GEOS 3 Rocket - Pass Details

Date: 07 August 2020
Orbit: 770 x 849 km, 115.0° (Epoch: 17 September)

Event Time Altitude Azimuth Distance (km) Brightness Sun altitude
Rises 00:34:30 0° 34° (NE) 3,416 8.0 -27.6°
Reaches altitude 10° 00:36:51 10° 32° (NNE) 2,480 7.1 -27.5°
Maximum altitude 00:42:12 64° 312° (NW) 939 3.9 -27.1°
Enters shadow 00:42:45 60° 280° (W) 967 3.8 -27.1°
